Location: Newark
(49.8969°N, 3.3422°E)
Time: 12:05:31
(UTC+00:00)

Envisat - Pass Details

Date: 10 December 2019
Orbit: 764 x 766 km, 98.1° (Epoch: 18 January)

Event Time Altitude Azimuth Distance (km) Brightness Sun altitude
Rises 17:36:44 0° 167° (SSE) 3,222 6.3 -16.9°
Reaches altitude 10° 17:39:01 10° 168° (SSE) 2,300 5.5 -17.3°
Maximum altitude 17:44:06 81° 255° (WSW) 782 3.1 -18.1°
Drops below altitude 10° 17:49:13 10° 344° (NNW) 2,316 5.5 -18.9°
Sets 17:51:33 0° 346° (NNW) 3,247 6.3 -19.2°
